• In Denmark
  • List of Countries
  • For 7 days
  • Water Temperature
  • Satellite Maps
  • Weather Map
  • Weather Widgets
  • user-avatar
    Login

    Hourly Weather San Carlos

    Today, 24 September, Monday

    Time Temperature Precipitation Wind Pressure Humidity
    00:00 +23°C° 0 mm 0 mps 744 mmHg 96%
    01:00 +23°C° 0 mm 0 mps 744 mmHg 96%
    02:00 +22°C° 0.2 mm 0 mps 744 mmHg 96%
    03:00 +22°C° 0.2 mm 0 mps 744 mmHg 96%
    04:00 +22°C° 0.2 mm 0 mps 744 mmHg 96%
    05:00 +23°C° 0.3 mm 0 mps 744 mmHg 94%
    06:00 +24°C° 0.3 mm 0 mps 744 mmHg 92%
    07:00 +24°C° 0.3 mm 0 mps 745 mmHg 90%
    08:00 +27°C° 1.2 mm 1 mps 745 mmHg 87%
    09:00 +29°C° 1.2 mm 1 mps 745 mmHg 83%
    10:00 +30°C° 1.2 mm 2 mps 745 mmHg 80%
    11:00 +30°C° 0.7 mm 2 mps 745 mmHg 77%
    12:00 +31°C° 0.7 mm 2 mps 744 mmHg 74%
    13:00 +31°C° 0.7 mm 2 mps 743 mmHg 71%
    14:00 +31°C° 0.1 mm 2 mps 743 mmHg 73%
    15:00 +31°C° 0.1 mm 1 mps 743 mmHg 74%
    16:00 +30°C° 0.1 mm 1 mps 742 mmHg 76%
    17:00 +29°C° 0.3 mm 1 mps 743 mmHg 81%
    18:00 +27°C° 0.3 mm 1 mps 743 mmHg 87%
    19:00 +24°C° 0.3 mm 0 mps 743 mmHg 92%
    20:00 +24°C° 1.5 mm 0 mps 744 mmHg 93%
    21:00 +24°C° 1.5 mm 0 mps 745 mmHg 93%
    22:00 +23°C° 1.5 mm 0 mps 745 mmHg 94%
    23:00 +23°C° 0.4 mm 0 mps 745 mmHg 94%

    Tomorrow, 25 September, Tuesday

    Time Temperature Precipitation Wind Pressure Humidity
    00:00 +23°C° 0.4 mm 0 mps 745 mmHg 95%
    01:00 +23°C° 0.4 mm 0 mps 744 mmHg 95%
    02:00 +23°C° 0.2 mm 0 mps 744 mmHg 95%
    03:00 +23°C° 0.2 mm 0 mps 744 mmHg 95%
    04:00 +22°C° 0.2 mm 0 mps 744 mmHg 95%
    05:00 +23°C° 0.1 mm 0 mps 744 mmHg 93%
    06:00 +24°C° 0.1 mm 0 mps 745 mmHg 91%
    07:00 +24°C° 0.1 mm 0 mps 745 mmHg 90%
    08:00 +27°C° 0.6 mm 1 mps 746 mmHg 87%
    09:00 +28°C° 0.6 mm 1 mps 746 mmHg 84%
    10:00 +29°C° 0.6 mm 2 mps 746 mmHg 81%
    11:00 +29°C° 0.4 mm 2 mps 745 mmHg 82%
    12:00 +28°C° 0.4 mm 1 mps 744 mmHg 83%
    13:00 +28°C° 0.4 mm 1 mps 744 mmHg 84%
    14:00 +28°C° 0.4 mm 1 mps 743 mmHg 86%
    15:00 +28°C° 0.4 mm 1 mps 743 mmHg 87%
    16:00 +27°C° 0.4 mm 1 mps 742 mmHg 89%
    17:00 +27°C° 0.1 mm 1 mps 743 mmHg 90%
    18:00 +26°C° 0.1 mm 1 mps 743 mmHg 91%
    19:00 +25°C° 0.1 mm 1 mps 743 mmHg 92%
    20:00 +25°C° 0.1 mm 1 mps 744 mmHg 92%
    21:00 +25°C° 0.1 mm 1 mps 744 mmHg 91%
    22:00 +25°C° 0.1 mm 1 mps 745 mmHg 91%
    23:00 +25°C° 0.5 mm 1 mps 744 mmHg 91%

    Day after tomorrow, 26 September, Wednesday

    Time Temperature Precipitation Wind Pressure Humidity
    00:00 +25°C° 0.5 mm 1 mps 744 mmHg 92%
    01:00 +23°C° 0.5 mm 0 mps 744 mmHg 92%
    02:00 +22°C° 0.2 mm 0 mps 744 mmHg 93%
    03:00 +22°C° 0.2 mm 0 mps 743 mmHg 94%
    04:00 +22°C° 0.2 mm 0 mps 743 mmHg 95%
    05:00 +23°C° 0 mm 0 mps 744 mmHg 92%
    06:00 +24°C° 0 mm 0 mps 744 mmHg 89%
    07:00 +25°C° 0 mm 0 mps 745 mmHg 86%
    08:00 +27°C° 0.1 mm 0 mps 745 mmHg 77%
    09:00 +31°C° 0.1 mm 1 mps 745 mmHg 69%
    10:00 +33°C° 0.1 mm 1 mps 745 mmHg 61%
    11:00 +33°C° 0.8 mm 1 mps 744 mmHg 63%
    12:00 +33°C° 0.8 mm 1 mps 743 mmHg 65%
    13:00 +33°C° 0.8 mm 1 mps 742 mmHg 67%
    14:00 +32°C° 1 mm 1 mps 742 mmHg 70%
    15:00 +32°C° 1 mm 1 mps 741 mmHg 73%
    16:00 +31°C° 1 mm 1 mps 741 mmHg 76%
    17:00 +30°C° 0.9 mm 1 mps 742 mmHg 82%
    18:00 +28°C° 0.9 mm 1 mps 742 mmHg 87%
    19:00 +26°C° 0.9 mm 1 mps 743 mmHg 92%
    20:00 +26°C° 0.9 mm 1 mps 743 mmHg 93%
    21:00 +26°C° 0.9 mm 1 mps 743 mmHg 93%
    22:00 +26°C° 0.9 mm 1 mps 744 mmHg 94%
    23:00 +25°C° 0.9 mm 1 mps 743 mmHg 94%

    27 September, Thursday

    Time Temperature Precipitation Wind Pressure Humidity
    00:00 +25°C° 0.9 mm 1 mps 743 mmHg 94%
    01:00 +25°C° 0.9 mm 1 mps 743 mmHg 95%
    02:00 +25°C° 0.5 mm 1 mps 742 mmHg 95%
    03:00 +25°C° 0.5 mm 1 mps 742 mmHg 95%
    04:00 +24°C° 0.5 mm 1 mps 742 mmHg 95%
    05:00 +23°C° 0.2 mm 0 mps 743 mmHg 93%
    06:00 +24°C° 0.2 mm 0 mps 743 mmHg 90%
    07:00 +25°C° 0.2 mm 0 mps 744 mmHg 87%
    08:00 +27°C° 0.7 mm 0 mps 744 mmHg 82%
    09:00 +30°C° 0.7 mm 1 mps 744 mmHg 76%
    10:00 +32°C° 0.7 mm 1 mps 744 mmHg 70%
    11:00 +32°C° 0.6 mm 1 mps 744 mmHg 69%
    12:00 +33°C° 0.6 mm 1 mps 743 mmHg 68%
    13:00 +33°C° 0.6 mm 1 mps 742 mmHg 67%
    14:00 +33°C° 0.3 mm 1 mps 742 mmHg 68%
    15:00 +33°C° 0.3 mm 1 mps 741 mmHg 69%
    16:00 +32°C° 0.3 mm 1 mps 741 mmHg 70%
    17:00 +31°C° 0.5 mm 1 mps 742 mmHg 76%
    18:00 +29°C° 0.5 mm 1 mps 742 mmHg 82%
    19:00 +27°C° 0.5 mm 1 mps 743 mmHg 88%
    20:00 +27°C° 1.1 mm 1 mps 743 mmHg 89%
    21:00 +27°C° 1.1 mm 1 mps 744 mmHg 91%
    22:00 +26°C° 1.1 mm 1 mps 744 mmHg 92%
    23:00 +26°C° 0.5 mm 1 mps 743 mmHg 93%

    28 September, Friday

    Time Temperature Precipitation Wind Pressure Humidity
    00:00 +26°C° 0.5 mm 1 mps 743 mmHg 93%
    01:00 +26°C° 0.5 mm 1 mps 743 mmHg 94%
    02:00 +25°C° 0.6 mm 1 mps 743 mmHg 94%
    03:00 +25°C° 0.6 mm 1 mps 743 mmHg 94%
    04:00 +23°C° 0.6 mm 0 mps 743 mmHg 95%
    05:00 +24°C° 0.3 mm 0 mps 743 mmHg 93%
    06:00 +24°C° 0.3 mm 0 mps 744 mmHg 91%
    07:00 +25°C° 0.3 mm 0 mps 745 mmHg 89%
    08:00 +26°C° 0.4 mm 0 mps 745 mmHg 85%
    09:00 +30°C° 0.4 mm 1 mps 745 mmHg 80%
    10:00 +31°C° 0.4 mm 1 mps 745 mmHg 76%
    11:00 +32°C° 0.2 mm 1 mps 744 mmHg 73%
    12:00 +32°C° 0.2 mm 2 mps 743 mmHg 70%
    13:00 +32°C° 0.2 mm 2 mps 742 mmHg 67%
    14:00 +32°C° 0.1 mm 2 mps 742 mmHg 70%
    15:00 +32°C° 0.1 mm 1 mps 742 mmHg 72%
    16:00 +31°C° 0.1 mm 1 mps 741 mmHg 75%
    17:00 +30°C° 0.5 mm 1 mps 742 mmHg 81%
    18:00 +26°C° 0.5 mm 0 mps 743 mmHg 86%
    19:00 +25°C° 0.5 mm 0 mps 743 mmHg 92%
    20:00 +25°C° 1.2 mm 0 mps 743 mmHg 93%
    21:00 +24°C° 1.2 mm 0 mps 744 mmHg 94%
    22:00 +24°C° 1.2 mm 0 mps 744 mmHg 94%
    23:00 +24°C° 0.7 mm 0 mps 744 mmHg 95%

    29 September, Saturday

    Time Temperature Precipitation Wind Pressure Humidity
    00:00 +25°C° 0.7 mm 1 mps 743 mmHg 95%
    01:00 +25°C° 0.7 mm 1 mps 743 mmHg 95%
    02:00 +25°C° 0.4 mm 1 mps 743 mmHg 95%
    03:00 +25°C° 0.4 mm 1 mps 743 mmHg 95%
    04:00 +25°C° 0.4 mm 1 mps 743 mmHg 95%
    05:00 +25°C° 0 mm 1 mps 743 mmHg 93%
    06:00 +24°C° 0 mm 0 mps 744 mmHg 91%
    07:00 +25°C° 0 mm 0 mps 744 mmHg 90%
    08:00 +28°C° 0.1 mm 1 mps 744 mmHg 85%
    09:00 +29°C° 0.1 mm 2 mps 744 mmHg 80%
    10:00 +30°C° 0.1 mm 2 mps 745 mmHg 75%
    11:00 +30°C° 1 mm 2 mps 744 mmHg 77%
    12:00 +30°C° 1 mm 2 mps 743 mmHg 79%
    13:00 +30°C° 1 mm 2 mps 742 mmHg 81%
    14:00 +30°C° 0.9 mm 2 mps 742 mmHg 83%
    15:00 +30°C° 0.9 mm 1 mps 742 mmHg 84%
    16:00 +29°C° 0.9 mm 1 mps 741 mmHg 86%
    17:00 +28°C° 0.6 mm 1 mps 742 mmHg 89%
    18:00 +25°C° 0.6 mm 0 mps 743 mmHg 92%
    19:00 +24°C° 0.6 mm 0 mps 743 mmHg 95%
    20:00 +24°C° 0.3 mm 0 mps 743 mmHg 95%
    21:00 +24°C° 0.3 mm 0 mps 744 mmHg 95%
    22:00 +26°C° 0.3 mm 1 mps 744 mmHg 94%
    23:00 +25°C° 0.3 mm 1 mps 743 mmHg 94%
    Show more